Regional Weather Roundup
Issued by NWS Boston, MA

Current Version | Previous Version | Text Only | Print | Product List | Glossary Off
Versions: 1 2 3 4 5 6 7 8 9 10 11 12 13 14 15 16 17 18 19 20 21 22 23 24 25 26 27 28 29 30 31 32 33 34 35 36 37 38 39 40 41 42 43 44 45 46 47 48
000 ASUS41 KBOX 221610 RWRBOX REGIONAL WEATHER ROUNDUP NATIONAL WEATHER SERVICE TAUNTON MA 1100 AM EST MON DEC 22 2014 NOTE: "FAIR" INDICATES FEW OR NO CLOUDS BELOW 12,000 FEET WITH NO SIGNIFICANT WEATHER AND/OR OBSTRUCTIONS TO VISIBILITY. THE FOLLOWING OBSERVATION LOCATIONS DO NOT REPORT PRESENT WEATHER...PROVINCETOWN... SMITHFIELD...BLOCK ISLAND...KEENE...AND OXFORD. MAZALL-221700- EASTERN MASSACHUSETTS CITY SKY/WX TMP DP RH WIND PRES REMARKS BOSTON NOT AVBL BEVERLY CLOUDY 40 34 79 N9 30.37F LAWRENCE CLOUDY 37 30 75 NE6 30.40F BEDFORD CLOUDY 39 32 76 NE8 30.36F BLUE HILL N/A 37 34 89 NE10 30.33F WCI 30 NORWOOD CLOUDY 41 35 79 NE7 30.36F MARSHFIELD CLOUDY 45 37 76 NE8 30.37F PLYMOUTH LGT RAIN 41 40 96 NE6 30.35F FOG TAUNTON CLOUDY 44 37 76 CALM 30.34F NEW BEDFORD CLOUDY 42 38 85 N7 30.34F $$ MAZALL-221700- CAPE COD AND THE ISLANDS CITY SKY/WX TMP DP RH WIND PRES REMARKS FALMOUTH CLOUDY 45 39 81 NE8 30.34F HYANNIS CLOUDY 46 40 79 NE8 30.32F CHATHAM PTSUNNY 46 37 71 E8 30.35F PROVINCETOWN CLOUDY 45 39 81 SE7 30.36F NANTUCKET MOSUNNY 48 39 71 E14 30.33F MARTHAS VNYRD PTSUNNY 45 39 79 NE14 30.33F $$ MAZALL-221700- CENTRAL AND WESTERN MASSACHUSETTS CITY SKY/WX TMP DP RH WIND PRES REMARKS WORCESTER CLOUDY 32 29 88 E7 30.33F WCI 26 FITCHBURG CLOUDY 37 26 64 CALM 30.38F ORANGE CLOUDY 37 30 75 NE5 30.34F SPRINGFIELD NOT AVBL WESTFIELD CLOUDY 36 31 82 N6 30.35F WCI 31 NORTH ADAMS CLOUDY 36 30 79 E6 30.33F WCI 31 PITTSFIELD CLOUDY 34 31 88 E3 30.29F $$ RIZALL-221700- RHODE ISLAND CITY SKY/WX TMP DP RH WIND PRES REMARKS PROVIDENCE PTSUNNY 42 34 73 NE7 30.36F NEWPORT MOSUNNY 41 37 86 NE9 30.33F BLOCK ISLAND CLOUDY 41 36 81 NE12 30.33F SMITHFIELD CLOUDY 39 28 65 NE6 30.34F WESTERLY SUNNY 45 36 70 NE8 30.34F $$ CTZALL-221700- CONNECTICUT CITY SKY/WX TMP DP RH WIND PRES REMARKS BRADLEY INTL CLOUDY 37 31 78 NW7 30.35F WCI 32 HARTFORD CLOUDY 38 32 79 VRB6 30.36F BRIDGEPORT CLOUDY 40 36 86 NE9 30.32F DANBURY CLOUDY 37 31 78 E6 30.32F GROTON CLOUDY 44 36 73 E12 30.32F NEW HAVEN CLOUDY 42 35 76 NE6 30.33F CHESTER CLOUDY 39 34 81 NE3 30.32F MERIDEN CLOUDY 39 32 76 N5 30.34F WILLIMANTIC CLOUDY 41 33 73 NE8 30.34F OXFORD CLOUDY 36 28 75 E8 30.32F WCI 29 $$ MEZ002-015-021-024-NHZ003-005-008-011-012-014-VTZ005-008-221700- NORTHERN NEW ENGLAND CITY SKY/WX TMP DP RH WIND PRES REMARKS PORTLAND ME PTSUNNY 36 28 73 NE6 30.42F WCI 31 BANGOR ME PTSUNNY 31 27 85 CALM 30.43F CONCORD NH CLOUDY 34 28 79 NW3 30.38F MANCHESTER NH CLOUDY 36 26 67 N3 30.37F NASHUA NH CLOUDY 36 28 73 NE5 30.39F PORTSMOUTH NH NOT AVBL JAFFREY NH CLOUDY 33 28 81 CALM 30.33F KEENE NH CLOUDY 34 30 86 CALM 30.35F BURLINGTON VT CLOUDY 25 20 81 N3 30.37F FOG MT. WASHINGTON CLOUDY 19 0 42 W15 N/A WCI 5 $$ NYZ052-076-221700- EASTERN NEW YORK CITY SKY/WX TMP DP RH WIND PRES REMARKS ALBANY FLURRIES 31 25 78 NW3 30.36F NEW YORK CITY CLOUDY 41 36 82 NE13 30.32S $$ ANZALL-221700- MARINE OBSERVATIONS STATION/POSITION TIME TEMP WIND PRES VSBY WAVE AIR SEA DIR/SP/G HT/PER (UTC) (F) (DEG/KT/KT) (MB) (MI) (FT/S) BOSTON BUOY 1550 43 46 60/ 6/ 8 1028.3F 3/ 7 BUZZARDS BAY 1500 30/ 13/ 14 1028.6R NANTUCKET SOUND 1550 44 43 70/ 14/ 16 1026.8F 2/ 7 MASS BAY-STELLWA 1504 41 44 20/ 10/ 14 N/A 1 7/8 3/ 6 ISLE OF SHOALS 1600 39 40/ 17/ 20 1027.8F S OF BLOCK IS 1508 51 N/A 3/ 4 $$ ......................KEY......................... SKY/WX - SKY CONDITION/PRESENT WEATHER TMP - TEMPERATURE IN FAHRENHEIT DWPT - DEWPOINT IN FAHRENHEIT RH - RELATIVE HUMIDITY IN PERCENT WIND - DIRECTION AND SPEED IN MPH PRES - MEAN SEA LEVEL PRESSURE IN INCHES OF HG WCI - WIND CHILL INDEX VSB - VISIBILITY IN MILES HX - HEAT INDEX TC - TEMPERATURE IN CELSIUS VRB - VARIABLE WIND DIRECTION N/A - NOT AVAILABLE

USA.gov is the U.S. government's official web portal to all federal, state and local government web resources and services.